• Join FlightAware (Why Join?)
  • Login
  • US Flag 
01:19AM EST


 

Airport Tracker/Info


-or-


 

Live Flight TrackerFlight Track Log ✈ COM2941 ✈ 23-Apr-2012 ✈ KCVG - KDCA

Flight Track Log - Related Links

Times and Time Zones

All times are in EDT time to prevent confusion due to time zone crossing. See the COM2941 flight status page for this flight to view local times or setup timezone preferences in your user account.

Time Position Orientation Groundspeed Altitude Reporting Facility
EDT Latitude Longitude Course Direction KTS MPH feet Rate Location/Type
11:54AM 39.0667 -84.6500 72° East 186 214 1,800  Level Cincinnati TRACON
11:55AM 39.0833 -84.5833 117° Southeast 240 276 4,400 2,737 Climbing Cincinnati TRACON
11:56AM 39.0500 -84.5000 112° Southeast 280 322 7,000 2,870 Climbing Cincinnati TRACON
11:57AM 39.0344 -84.4500 117° Southeast 300 345 8,800 2,571 Climbing Indianapolis Center
11:58AM 38.9956 -84.3506 116° Southeast 325 374 11,200 2,250 Climbing Indianapolis Center
11:59AM 38.9522 -84.2381 117° Southeast 325 374 13,300 2,200 Climbing Indianapolis Center
12:00PM 38.9050 -84.1200 112° Southeast 347 399 15,600 2,000 Climbing Indianapolis Center
12:01PM 38.8700 -84.0106 105° East 366 421 17,300 1,850 Climbing Indianapolis Center
12:02PM 38.8414 -83.8742 105° East 383 441 19,300 2,050 Climbing Indianapolis Center
12:03PM 38.8125 -83.7383 106° East 389 448 21,400 1,900 Climbing Indianapolis Center
12:04PM 38.7811 -83.5969 98° East 400 460 23,100 1,800 Climbing Indianapolis Center
12:05PM 38.7644 -83.4531 90° East 400 460 25,000 2,200 Climbing Indianapolis Center
12:06PM 38.7642 -83.3094 88° East 405 466 27,500 2,000 Climbing Indianapolis Center
12:07PM 38.7681 -83.1656 90° East 380 437 29,000 750 Climbing Indianapolis Center
12:08PM 38.7675 -83.0269 95° East 380 437 29,000  Level Indianapolis Center
12:09PM 38.7586 -82.8886 114° Southeast 380 437 29,000  Level Indianapolis Center
12:10PM 38.7161 -82.7639 116° Southeast 380 437 29,000  Level Indianapolis Center
12:11PM 38.6714 -82.6447 114° Southeast 375 432 29,000  Level Indianapolis Center
12:12PM 38.6264 -82.5178 116° Southeast 380 437 29,000  Level Indianapolis Center
12:13PM 38.5903 -82.4225 115° Southeast 380 437 29,000  Level Indianapolis Center
12:14PM 38.5450 -82.2958 115° Southeast 380 437 29,000  Level Indianapolis Center
12:15PM 38.5000 -82.1719 116° Southeast 386 444 29,000  Level Indianapolis Center
12:16PM 38.4439 -82.0269 115° Southeast 386 444 29,000  Level Indianapolis Center
12:17PM 38.3983 -81.9033 113° Southeast 380 437 29,000  Level Indianapolis Center
12:18PM 38.3569 -81.7772 97° East 380 437 29,000  Level Indianapolis Center
12:19PM 38.3444 -81.6425 91° East 375 432 29,000  Level Indianapolis Center
12:20PM 38.3419 -81.5050 93° East 375 432 29,000  Level Indianapolis Center
12:21PM 38.3333 -81.3017 93° East 391 450 29,000  Level Washington Center
12:22PM 38.3275 -81.1633 92° East 385 443 29,000  Level Washington Center
12:23PM 38.3231 -81.0308 92° East 385 443 29,000  Level Washington Center
12:24PM 38.3189 -80.8903 92° East 385 443 29,000  Level Washington Center
12:25PM 38.3144 -80.7547 93° East 390 449 29,000  Level Washington Center
12:26PM 38.3094 -80.6300 92° East 390 449 29,000  Level Washington Center
12:27PM 38.3047 -80.4922 92° East 390 449 29,000  Level Washington Center
12:28PM 38.3000 -80.3517 93° East 390 449 29,000  Level Washington Center
12:29PM 38.2950 -80.2136 84° East 390 449 29,000  Level Washington Center
12:30PM 38.3064 -80.0769 77° East 390 449 29,000  Level Washington Center
12:31PM 38.3328 -79.9247 80° East 390 449 29,000  Level Washington Center
12:32PM 38.3522 -79.7856 79° East 390 449 29,000  Level Washington Center
12:33PM 38.3739 -79.6464 80° East 390 449 29,000  Level Washington Center
12:34PM 38.3931 -79.5072 78° East 390 449 29,000 -744 Level Washington Center
12:35PM 38.4164 -79.3653 74° East 390 449 27,500 -1,700 Descending Washington Center
12:36PM 38.4453 -79.2369 70° East 403 464 25,600 -1,934 Descending Washington Center
12:37PM 38.4828 -79.1033 69° East 403 464 23,600 -1,966 Descending Washington Center
12:38PM 38.5219 -78.9700 73° East 403 464 21,700 -1,815 Descending Washington Center
12:39PM 38.5572 -78.8203 69° East 398 458 20,000 -1,574 Descending Washington Center
12:40PM 38.5942 -78.6942 70° East 392 451 18,500 -1,686 Descending Washington Center
12:41PM 38.6306 -78.5656 70° East 382 440 16,600 -1,780 Descending Washington Center
12:42PM 38.6647 -78.4447 70° East 376 433 15,000 -814 Descending Washington Center
12:43PM 38.7011 -78.3156 37° Northeast 371 427 15,000 -50 Level Washington Center
12:44PM 38.7800 -78.2386 21° North 345 397 14,900 -793 Descending Washington Center
12:45PM 38.8750 -78.1914 32° Northeast 348 400 13,400 -942 Descending Washington Center
12:46PM 38.9597 -78.1222 49° Northeast 348 400 13,000 -198 Descending Washington Center
12:47PM 39.0242 -78.0258 107° East 348 400 13,000 -559 Level Washington Center
12:48PM 38.9936 -77.8964 116° Southeast 313 360 11,900 -1,008 Descending Washington Center
12:49PM 38.9478 -77.7775 96° East 318 366 11,000 -892 Descending Washington Center
12:51PM 38.9333 -77.6000 90° East 319 367 9,700 -1,224 Descending Potomac TRACON
12:52PM 38.9333 -77.4833 102° East 304 350 8,000 -843 Descending Potomac TRACON
12:53PM 38.9167 -77.3833 102° East 302 348 8,000 -198 Level Potomac TRACON
12:54PM 38.9000 -77.2833 108° East 248 285 7,600 -789 Descending Potomac TRACON
12:55PM 38.8833 -77.2167 104° East 230 265 6,500 -835 Descending Potomac TRACON
12:56PM 38.8667 -77.1333 104° East 224 258 6,000 -236 Descending Potomac TRACON
12:57PM 38.8500 -77.0500 104° East 210 242 6,000  Level Potomac TRACON
12:58PM 38.8333 -76.9667 165° South 240 276 6,000  Level Potomac TRACON
12:59PM 38.7833 -76.9500 165° South 213 245 6,000 -417 Level Potomac TRACON
01:00PM 38.7333 -76.9333 180° South 193 222 5,200 -500 Descending Potomac TRACON
01:01PM 38.6833 -76.9333 165° South 187 215 5,000 -105 Descending Potomac TRACON
01:02PM 38.6333 -76.9167 180° South 192 221 5,000 -53 Level Potomac TRACON
01:03PM 38.5667 -76.9167 201° Southwest 191 220 4,900 -645 Descending Potomac TRACON
01:04PM 38.5333 -76.9333 270° West 189 217 3,700 -1,190 Descending Potomac TRACON
01:05PM 38.5333 -76.9833 322° Northwest 173 199 2,500 -632 Descending Potomac TRACON
01:05PM 38.5667 -77.0167 360° North 156 180 2,500  Level Potomac TRACON
01:06PM 38.6167 -77.0167 360° North 162 186 2,500  Level Potomac TRACON
01:07PM 38.6667 -77.0167 360° North 166 191 2,500  Level Potomac TRACON
01:08PM 38.7000 -77.0167 345° North 161 185 2,500 -250 Level Potomac TRACON
01:09PM 38.7500 -77.0333 360° North 159 183 2,000 -645 Descending Potomac TRACON
01:10PM 38.7833 -77.0333 360° North 140 161 1,200 -793 Descending Potomac TRACON
01:11PM 38.8333 -77.0333 360° North 140 161 400 -800 Descending Potomac TRACON